"Period start","avg(HW err(1)/warn(2) (#))","avg(Visibility (m))","avg(Weather code (#))","avg(Precip intensity (mm/h))","min(HW err(1)/warn(2) (#))","max(HW err(1)/warn(2) (#))","std(HW err(1)/warn(2) (#))","med(HW err(1)/warn(2) (#))","min(Visibility (m))","max(Visibility (m))","std(Visibility (m))","med(Visibility (m))","min(Weather code (#))","max(Weather code (#))","std(Weather code (#))","med(Weather code (#))","min(Precip intensity (mm/h))","max(Precip intensity (mm/h))","std(Precip intensity (mm/h))","med(Precip intensity (mm/h))"
2016-09-16 00:00:00,2,27337,0,0.00,2,2,0,2,18516,33901,5073,26494,0,0,0,0,0.00,0.00,0.00,0.00
2016-09-16 00:10:00,2,28532,0,0.00,2,2,0,2,21349,41225,5414,28667,0,0,0,0,0.00,0.00,0.00,0.00
2016-09-16 00:20:00,2,29112,0,0.00,2,2,0,2,20807,50000,8666,25539,0,0,0,0,0.00,0.00,0.00,0.00
2016-09-16 00:30:00,2,31637,0,0.00,2,2,0,2,23868,45224,7383,29753,0,0,0,0,0.00,0.00,0.00,0.00
2016-09-16 00:40:00,2,27823,0,0.00,2,2,0,2,18983,38660,7702,25136,0,0,0,0,0.00,0.00,0.00,0.00
2016-09-16 00:50:00,1,33626,0,0.00,0,2,1,0,25126,46021,5394,32064,0,0,0,0,0.00,0.00,0.00,0.00
2016-09-16 01:00:00,1,29314,0,0.00,0,2,1,1,17396,48509,9987,26986,0,0,0,0,0.00,0.00,0.00,0.00
2016-09-16 01:10:00,0,29067,0,0.00,0,0,0,0,23880,33776,3915,28658,0,0,0,0,0.00,0.00,0.00,0.00
2016-09-16 01:20:00,0,27551,0,0.00,0,0,0,0,17536,37116,4751,28330,0,0,0,0,0.00,0.00,0.00,0.00
2016-09-16 01:30:00,0,32717,0,0.00,0,0,0,0,22774,44915,6816,32588,0,0,0,0,0.00,0.00,0.00,0.00
2016-09-16 01:40:00,0,29166,0,0.00,0,0,0,0,21909,37907,5188,28837,0,0,0,0,0.00,0.00,0.00,0.00
2016-09-16 01:50:00,0,33670,0,0.00,0,2,1,0,22532,41845,4756,34183,0,0,0,0,0.00,0.00,0.00,0.00
2016-09-16 02:00:00,0,30058,0,0.00,0,0,0,0,25584,36038,3340,29268,0,0,0,0,0.00,0.00,0.00,0.00
2016-09-16 02:10:00,0,25684,0,0.00,0,0,0,0,19005,29421,3263,25951,0,0,0,0,0.00,0.00,0.00,0.00
2016-09-16 02:20:00,1,29673,0,0.00,0,2,1,0,16781,45350,8011,30798,0,0,0,0,0.00,0.00,0.00,0.00
2016-09-16 02:30:00,0,33487,0,0.00,0,0,0,0,24849,42500,5966,33806,0,0,0,0,0.00,0.00,0.00,0.00
2016-09-16 02:40:00,0,33330,0,0.00,0,0,0,0,25585,42416,5358,32804,0,0,0,0,0.00,0.00,0.00,0.00
2016-09-16 02:50:00,0,30702,0,0.00,0,0,0,0,26470,38942,3895,29998,0,0,0,0,0.00,0.00,0.00,0.00
2016-09-16 03:00:00,0,28838,0,0.00,0,0,0,0,22275,39093,4801,27552,0,0,0,0,0.00,0.00,0.00,0.00
2016-09-16 03:10:00,0,28657,0,0.00,0,0,0,0,24785,33309,3332,27574,0,0,0,0,0.00,0.00,0.00,0.00
2016-09-16 03:20:00,0,25846,0,0.00,0,0,0,0,21727,34186,3698,24958,0,0,0,0,0.00,0.00,0.00,0.00
2016-09-16 03:30:00,1,25608,0,0.00,0,2,1,0,20172,33312,3486,25830,0,0,0,0,0.00,0.00,0.00,0.00
2016-09-16 03:40:00,0,20224,0,0.00,0,2,1,0,15208,30997,4344,19623,0,0,0,0,0.00,0.00,0.00,0.00
2016-09-16 03:50:00,0,26741,0,0.00,0,0,0,0,20841,33321,3613,26328,0,0,0,0,0.00,0.00,0.00,0.00
2016-09-16 04:00:00,0,21692,0,0.00,0,0,0,0,15367,29959,3793,21162,0,0,0,0,0.00,0.00,0.00,0.00
2016-09-16 04:10:00,0,21986,0,0.00,0,0,0,0,18900,26562,2187,21538,0,0,0,0,0.00,0.00,0.00,0.00
2016-09-16 04:20:00,0,25698,0,0.00,0,0,0,0,19031,36202,5167,26520,0,0,0,0,0.00,0.00,0.00,0.00
2016-09-16 04:30:00,0,22041,0,0.00,0,0,0,0,16493,34451,5455,19546,0,0,0,0,0.00,0.00,0.00,0.00
2016-09-16 04:40:00,0,19612,0,0.00,0,0,0,0,17291,21935,1302,19898,0,0,0,0,0.00,0.00,0.00,0.00
2016-09-16 04:50:00,0,20718,0,0.00,0,0,0,0,16217,24023,2624,20584,0,0,0,0,0.00,0.00,0.00,0.00
2016-09-16 05:00:00,0,27709,0,0.00,0,0,0,0,17436,41019,6970,28887,0,0,0,0,0.00,0.00,0.00,0.00
2016-09-16 05:10:00,0,22431,0,0.00,0,0,0,0,18013,27302,2728,22607,0,0,0,0,0.00,0.00,0.00,0.00
2016-09-16 05:20:00,0,24026,0,0.00,0,0,0,0,18164,28788,3149,24698,0,0,0,0,0.00,0.00,0.00,0.00
2016-09-16 05:30:00,0,23342,0,0.00,0,0,0,0,18401,29042,3197,23068,0,0,0,0,0.00,0.00,0.00,0.00
2016-09-16 05:40:00,0,25975,0,0.00,0,0,0,0,21762,31340,2731,25360,0,0,0,0,0.00,0.00,0.00,0.00
2016-09-16 05:50:00,0,27984,0,0.00,0,0,0,0,22856,33640,3218,27135,0,0,0,0,0.00,0.00,0.00,0.00
2016-09-16 06:00:00,0,26872,0,0.00,0,0,0,0,20914,34330,3826,27128,0,0,0,0,0.00,0.00,0.00,0.00
2016-09-16 06:10:00,0,30336,0,0.00,0,0,0,0,24655,38161,4143,29498,0,0,0,0,0.00,0.00,0.00,0.00
2016-09-16 06:20:00,0,28690,0,0.00,0,0,0,0,24689,33548,3077,28413,0,0,0,0,0.00,0.00,0.00,0.00
2016-09-16 06:30:00,0,30210,0,0.00,0,0,0,0,22478,34777,3726,30968,0,0,0,0,0.00,0.00,0.00,0.00
2016-09-16 06:40:00,0,27452,0,0.00,0,0,0,0,24524,34427,3557,25918,0,0,0,0,0.00,0.00,0.00,0.00
2016-09-16 06:50:00,0,30816,0,0.00,0,0,0,0,23339,36808,4015,29710,0,0,0,0,0.00,0.00,0.00,0.00
2016-09-16 07:00:00,0,41761,0,0.00,0,0,0,0,26211,50000,6270,43240,0,0,0,0,0.00,0.00,0.00,0.00
2016-09-16 07:10:00,0,42134,0,0.00,0,0,0,0,34454,47040,3747,41773,0,0,0,0,0.00,0.00,0.00,0.00
2016-09-16 07:20:00,0,43591,0,0.00,0,0,0,0,37070,50000,5547,42606,0,0,0,0,0.00,0.00,0.00,0.00
2016-09-16 07:30:00,0,39236,0,0.00,0,0,0,0,35065,48264,3775,38306,0,0,0,0,0.00,0.00,0.00,0.00
2016-09-16 07:40:00,0,36243,0,0.00,0,0,0,0,29721,41033,3223,37126,0,0,0,0,0.00,0.00,0.00,0.00
2016-09-16 07:50:00,0,32074,0,0.00,0,0,0,0,28331,37791,3114,31376,0,0,0,0,0.00,0.00,0.00,0.00
2016-09-16 08:00:00,0,38010,0,0.00,0,0,0,0,35015,41027,1817,37886,0,0,0,0,0.00,0.00,0.00,0.00
2016-09-16 08:10:00,0,33756,0,0.00,0,0,0,0,27444,44161,5375,32380,0,0,0,0,0.00,0.00,0.00,0.00
2016-09-16 08:20:00,0,35518,0,0.00,0,0,0,0,29042,39697,3440,36797,0,0,0,0,0.00,0.00,0.00,0.00
2016-09-16 08:30:00,0,31678,0,0.00,0,0,0,0,27710,34491,1812,31972,0,0,0,0,0.00,0.00,0.00,0.00
2016-09-16 08:40:00,0,34569,0,0.00,0,0,0,0,30906,40809,2735,33659,0,0,0,0,0.00,0.00,0.00,0.00
2016-09-16 08:50:00,0,37592,0,0.00,0,0,0,0,31018,46836,4735,36312,0,0,0,0,0.00,0.00,0.00,0.00
2016-09-16 09:00:00,0,47167,0,0.00,0,0,0,0,43341,49527,1880,47296,0,0,0,0,0.00,0.00,0.00,0.00
2016-09-16 09:10:00,0,48716,0,0.00,0,0,0,0,45311,50000,1637,49671,0,0,0,0,0.00,0.00,0.00,0.00
2016-09-16 09:20:00,0,47736,0,0.00,0,0,0,0,42976,50000,2426,48040,0,0,0,0,0.00,0.00,0.00,0.00
2016-09-16 09:30:00,0,49144,0,0.00,0,0,0,0,45837,50000,1490,49847,0,0,0,0,0.00,0.00,0.00,0.00
2016-09-16 09:40:00,0,49852,0,0.00,0,0,0,0,49426,50000,214,50000,0,0,0,0,0.00,0.00,0.00,0.00
2016-09-16 09:50:00,0,49941,0,0.00,0,0,0,0,49501,50000,149,50000,0,0,0,0,0.00,0.00,0.00,0.00
2016-09-16 10:00:00,0,49972,0,0.00,0,0,0,0,49720,50000,84,50000,0,0,0,0,0.00,0.00,0.00,0.00
2016-09-16 10:10:00,0,49712,0,0.00,0,0,0,0,47842,50000,642,50000,0,0,0,0,0.00,0.00,0.00,0.00
2016-09-16 10:20:00,0,50000,0,0.00,0,0,0,0,50000,50000,0,50000,0,0,0,0,0.00,0.00,0.00,0.00
2016-09-16 10:30:00,0,50000,0,0.00,0,0,0,0,50000,50000,0,50000,0,0,0,0,0.00,0.00,0.00,0.00
2016-09-16 10:40:00,0,50000,0,0.00,0,0,0,0,50000,50000,0,50000,0,0,0,0,0.00,0.00,0.00,0.00
2016-09-16 10:50:00,0,50000,0,0.00,0,0,0,0,50000,50000,0,50000,0,0,0,0,0.00,0.00,0.00,0.00
2016-09-16 11:00:00,0,50000,0,0.00,0,0,0,0,50000,50000,0,50000,0,0,0,0,0.00,0.00,0.00,0.00
2016-09-16 11:10:00,0,50000,0,0.00,0,0,0,0,50000,50000,0,50000,0,0,0,0,0.00,0.00,0.00,0.00
2016-09-16 11:20:00,0,50000,0,0.00,0,0,0,0,50000,50000,0,50000,0,0,0,0,0.00,0.00,0.00,0.00
2016-09-16 11:30:00,0,50000,0,0.00,0,0,0,0,50000,50000,0,50000,0,0,0,0,0.00,0.00,0.00,0.00
2016-09-16 11:40:00,0,50000,0,0.00,0,0,0,0,50000,50000,0,50000,0,0,0,0,0.00,0.00,0.00,0.00
2016-09-16 11:50:00,0,50000,0,0.00,0,0,0,0,50000,50000,0,50000,0,0,0,0,0.00,0.00,0.00,0.00
2016-09-16 12:00:00,0,50000,0,0.00,0,0,0,0,50000,50000,0,50000,0,0,0,0,0.00,0.00,0.00,0.00
2016-09-16 12:10:00,0,49833,0,0.00,0,0,0,0,48329,50000,501,50000,0,0,0,0,0.00,0.00,0.00,0.00
2016-09-16 12:20:00,0,50000,0,0.00,0,0,0,0,50000,50000,0,50000,0,0,0,0,0.00,0.00,0.00,0.00
2016-09-16 12:30:00,0,50000,0,0.00,0,0,0,0,50000,50000,0,50000,0,0,0,0,0.00,0.00,0.00,0.00
2016-09-16 12:40:00,0,49882,0,0.00,0,0,0,0,48816,50000,355,50000,0,0,0,0,0.00,0.00,0.00,0.00
2016-09-16 12:50:00,0,50000,0,0.00,0,0,0,0,50000,50000,0,50000,0,0,0,0,0.00,0.00,0.00,0.00
2016-09-16 13:00:00,0,50000,0,0.00,0,0,0,0,50000,50000,0,50000,0,0,0,0,0.00,0.00,0.00,0.00
2016-09-16 13:10:00,0,50000,0,0.00,0,0,0,0,50000,50000,0,50000,0,0,0,0,0.00,0.00,0.00,0.00
2016-09-16 13:20:00,0,50000,0,0.00,0,0,0,0,50000,50000,0,50000,0,0,0,0,0.00,0.00,0.00,0.00
2016-09-16 13:30:00,0,50000,0,0.00,0,0,0,0,50000,50000,0,50000,0,0,0,0,0.00,0.00,0.00,0.00
2016-09-16 13:40:00,0,50000,0,0.00,0,0,0,0,50000,50000,0,50000,0,0,0,0,0.00,0.00,0.00,0.00
2016-09-16 13:50:00,0,50000,0,0.00,0,0,0,0,50000,50000,0,50000,0,0,0,0,0.00,0.00,0.00,0.00
2016-09-16 14:00:00,0,50000,0,0.00,0,0,0,0,50000,50000,0,50000,0,0,0,0,0.00,0.00,0.00,0.00
2016-09-16 14:10:00,0,50000,0,0.00,0,0,0,0,50000,50000,0,50000,0,0,0,0,0.00,0.00,0.00,0.00
2016-09-16 14:20:00,0,50000,0,0.00,0,0,0,0,50000,50000,0,50000,0,0,0,0,0.00,0.00,0.00,0.00
2016-09-16 14:30:00,1,50000,0,0.00,0,2,1,1,50000,50000,0,50000,0,0,0,0,0.00,0.00,0.00,0.00
2016-09-16 14:40:00,2,50000,0,0.00,2,2,0,2,50000,50000,0,50000,0,0,0,0,0.00,0.00,0.00,0.00
2016-09-16 14:50:00,2,50000,0,0.00,2,2,0,2,50000,50000,0,50000,0,0,0,0,0.00,0.00,0.00,0.00
2016-09-16 15:00:00,1,50000,0,0.00,0,2,1,2,50000,50000,0,50000,0,0,0,0,0.00,0.00,0.00,0.00
2016-09-16 15:10:00,0,50000,0,0.00,0,0,0,0,50000,50000,0,50000,0,0,0,0,0.00,0.00,0.00,0.00
2016-09-16 15:20:00,1,50000,0,0.00,0,2,1,1,50000,50000,0,50000,0,0,0,0,0.00,0.00,0.00,0.00
2016-09-16 15:30:00,2,50000,0,0.00,0,2,1,2,50000,50000,0,50000,0,0,0,0,0.00,0.00,0.00,0.00
2016-09-16 15:40:00,1,50000,0,0.00,0,2,1,1,50000,50000,0,50000,0,0,0,0,0.00,0.00,0.00,0.00
2016-09-16 15:50:00,1,49982,0,0.00,0,2,1,1,49822,50000,53,50000,0,0,0,0,0.00,0.00,0.00,0.00
2016-09-16 16:00:00,2,50000,0,0.00,2,2,0,2,50000,50000,0,50000,0,0,0,0,0.00,0.00,0.00,0.00
2016-09-16 16:10:00,2,49698,0,0.00,2,2,0,2,47955,50000,649,50000,0,0,0,0,0.00,0.00,0.00,0.00
2016-09-16 16:20:00,1,50000,0,0.00,0,2,1,2,50000,50000,0,50000,0,0,0,0,0.00,0.00,0.00,0.00
2016-09-16 16:30:00,0,50000,0,0.00,0,0,0,0,50000,50000,0,50000,0,0,0,0,0.00,0.00,0.00,0.00
2016-09-16 16:40:00,0,49726,0,0.00,0,0,0,0,47262,50000,821,50000,0,0,0,0,0.00,0.00,0.00,0.00
2016-09-16 16:50:00,0,47291,0,0.00,0,0,0,0,38870,50000,3871,49682,0,0,0,0,0.00,0.00,0.00,0.00
2016-09-16 17:00:00,0,47557,0,0.00,0,0,0,0,44728,49573,1455,47708,0,0,0,0,0.00,0.00,0.00,0.00
2016-09-16 17:10:00,2,46776,0,0.00,0,2,1,2,40760,50000,3234,48076,0,0,0,0,0.00,0.00,0.00,0.00
2016-09-16 17:20:00,2,43453,0,0.00,2,2,0,2,38419,48670,3507,43894,0,0,0,0,0.00,0.00,0.00,0.00
2016-09-16 17:30:00,2,45200,0,0.00,2,2,0,2,40098,50000,3155,44607,0,0,0,0,0.00,0.00,0.00,0.00
2016-09-16 17:40:00,2,44034,0,0.00,2,2,0,2,38621,50000,3374,43496,0,0,0,0,0.00,0.00,0.00,0.00
2016-09-16 17:50:00,2,42257,0,0.00,2,2,0,2,35628,50000,4611,41286,0,0,0,0,0.00,0.00,0.00,0.00
2016-09-16 18:00:00,2,46770,0,0.00,2,2,0,2,41353,50000,2652,46595,0,0,0,0,0.00,0.00,0.00,0.00
2016-09-16 18:10:00,2,41004,0,0.00,2,2,0,2,33942,45420,3389,41192,0,0,0,0,0.00,0.00,0.00,0.00
2016-09-16 18:20:00,2,35201,0,0.00,2,2,0,2,31740,37979,2077,35220,0,0,0,0,0.00,0.00,0.00,0.00
2016-09-16 18:30:00,2,38528,0,0.00,2,2,0,2,31705,42558,3391,38934,0,0,0,0,0.00,0.00,0.00,0.00
2016-09-16 18:40:00,2,35072,0,0.00,2,2,0,2,31582,38929,2316,34566,0,0,0,0,0.00,0.00,0.00,0.00
2016-09-16 18:50:00,2,33398,0,0.00,2,2,0,2,28336,36958,2504,34048,0,0,0,0,0.00,0.00,0.00,0.00
2016-09-16 19:00:00,2,29881,0,0.00,2,2,0,2,25820,33859,2677,30520,0,0,0,0,0.00,0.00,0.00,0.00
2016-09-16 19:10:00,2,30846,0,0.00,2,2,0,2,26056,36596,2934,31304,0,0,0,0,0.00,0.00,0.00,0.00
2016-09-16 19:20:00,2,28267,0,0.00,2,2,0,2,23726,33805,3236,28376,0,0,0,0,0.00,0.00,0.00,0.00
2016-09-16 19:30:00,2,25657,0,0.00,2,2,0,2,22473,31483,2675,24726,0,0,0,0,0.00,0.00,0.00,0.00
2016-09-16 19:40:00,2,23553,0,0.00,2,2,0,2,18823,29223,3010,23057,0,0,0,0,0.00,0.00,0.00,0.00
2016-09-16 19:50:00,2,26066,0,0.00,0,2,1,2,24230,28921,1252,25988,0,0,0,0,0.00,0.00,0.00,0.00
2016-09-16 20:00:00,1,19626,0,0.00,0,2,1,0,14926,24279,3339,19986,0,0,0,0,0.00,0.00,0.00,0.00
2016-09-16 20:10:00,0,17007,37,0.08,0,2,1,0,11952,27952,4774,15411,0,61,30,61,0.00,0.55,0.16,0.00
2016-09-16 20:20:00,1,16193,55,1.29,0,2,1,2,8785,28095,8120,10556,0,61,18,61,0.00,4.80,1.64,0.60
2016-09-16 20:30:00,2,22042,37,0.27,0,2,1,2,11750,32856,6585,23782,0,61,30,61,0.00,2.05,0.61,0.00
2016-09-16 20:40:00,2,27962,0,0.00,0,2,1,2,25265,30049,1741,28414,0,0,0,0,0.00,0.00,0.00,0.00
2016-09-16 20:50:00,1,25332,0,0.00,0,2,1,2,21712,29171,2209,25492,0,0,0,0,0.00,0.00,0.00,0.00
2016-09-16 21:00:00,2,20532,0,0.00,0,2,1,2,18617,22033,1019,20457,0,0,0,0,0.00,0.00,0.00,0.00
2016-09-16 21:10:00,2,20644,0,0.00,0,2,1,2,19074,21939,814,20860,0,0,0,0,0.00,0.00,0.00,0.00
2016-09-16 21:20:00,2,19303,0,0.00,0,2,1,2,17432,22204,1377,19270,0,0,0,0,0.00,0.00,0.00,0.00
2016-09-16 21:30:00,2,17366,0,0.00,2,2,0,2,14194,19559,1717,17476,0,0,0,0,0.00,0.00,0.00,0.00
2016-09-16 21:40:00,2,17707,0,0.00,0,2,1,2,16602,18819,781,17728,0,0,0,0,0.00,0.00,0.00,0.00
2016-09-16 21:50:00,2,18369,0,0.00,0,2,1,2,16372,20530,1188,18456,0,0,0,0,0.00,0.00,0.00,0.00
2016-09-16 22:00:00,0,18499,0,0.00,0,0,0,0,16646,20254,1167,18650,0,0,0,0,0.00,0.00,0.00,0.00
2016-09-16 22:10:00,0,14282,12,1.66,0,0,0,0,5021,20374,4929,16706,0,62,25,0,0.00,10.20,3.43,0.00
2016-09-16 22:20:00,2,14654,30,0.93,0,2,1,2,6731,20164,5097,17192,0,61,30,30,0.00,6.45,1.93,0.00
2016-09-16 22:30:00,2,10781,43,2.92,0,2,1,2,6475,19294,4638,8483,0,61,28,61,0.00,9.30,3.14,2.20
2016-09-16 22:40:00,2,14662,24,0.05,2,2,0,2,9447,21644,4239,13450,0,61,30,0,0.00,0.30,0.09,0.00
2016-09-16 22:50:00,2,13040,30,1.38,2,2,0,2,5293,22333,6351,11580,0,61,30,30,0.00,5.25,1.85,0.00
2016-09-16 23:00:00,2,8438,50,3.55,2,2,0,2,5788,15161,2506,8048,0,61,17,52,0.00,7.80,2.17,3.25
2016-09-16 23:10:00,2,13751,49,4.42,2,2,0,2,6682,19134,4585,15829,0,62,25,61,0.00,19.25,6.00,2.10
2016-09-16 23:20:00,2,13710,37,3.68,2,2,0,2,7771,22960,4978,12563,0,62,30,61,0.00,15.00,5.66,0.72
2016-09-16 23:30:00,2,14246,39,0.07,2,2,0,2,11297,18841,2166,14634,0,61,26,52,0.00,0.30,0.10,0.03
2016-09-16 23:40:00,2,9268,48,0.62,2,2,0,2,7553,10830,1082,9107,0,61,16,51,0.00,2.90,0.90,0.17
2016-09-16 23:50:00,2,8935,56,1.94,2,2,0,2,4811,13206,2704,9392,10,62,15,61,0.00,11.95,3.56,0.33
